Time,TemperatureF,DewpointF,PressureIn,WindDirection,WindDirectionDegrees,WindSpeedMPH,WindSpeedGustMPH,Humidity,HourlyPrecipIn,Conditions,Clouds,dailyrainin,SoftwareType,DateUTC
2013-03-09 00:00:00,40.7,27.9,30.27,West,262,0.0,0.0,60,0.00,,CLR,0.00,VWS V14.01,2013-03-09 05:00:00,
2013-03-09 00:10:00,40.7,27.9,30.27,West,262,0.0,0.0,60,0.00,,CLR,0.00,VWS V14.01,2013-03-09 05:10:00,
2013-03-09 00:20:00,40.6,27.8,30.27,West,262,0.0,1.0,60,0.00,,CLR,0.00,VWS V14.01,2013-03-09 05:20:00,
2013-03-09 00:25:00,40.5,27.7,30.27,West,262,0.0,1.0,60,0.00,,CLR,0.00,VWS V14.01,2013-03-09 05:25:00,
2013-03-09 00:30:00,40.5,27.7,30.27,West,262,0.0,1.0,60,0.00,,CLR,0.00,VWS V14.01,2013-03-09 05:30:00,
2013-03-09 00:35:00,40.3,27.5,30.28,West,262,0.0,1.0,60,0.00,,CLR,0.00,VWS V14.01,2013-03-09 05:35:00,
2013-03-09 00:40:00,40.1,27.8,30.28,West,262,0.0,0.0,61,0.00,,CLR,0.00,VWS V14.01,2013-03-09 05:40:00,
2013-03-09 00:45:00,40.0,27.2,30.28,West,262,0.0,0.0,60,0.00,,CLR,0.00,VWS V14.01,2013-03-09 05:45:00,
2013-03-09 00:50:00,40.2,27.4,30.28,West,264,0.0,1.0,60,0.00,,CLR,0.00,VWS V14.01,2013-03-09 05:50:00,
2013-03-09 00:55:00,40.1,27.4,30.28,West,264,0.0,1.0,60,0.00,,CLR,0.00,VWS V14.01,2013-03-09 05:55:00,
2013-03-09 01:00:00,39.9,27.6,30.28,West,264,0.0,1.0,61,0.00,,CLR,0.00,VWS V14.01,2013-03-09 06:00:00,
2013-03-09 01:05:00,39.8,27.5,30.28,West,264,0.0,1.0,61,0.00,,CLR,0.00,VWS V14.01,2013-03-09 06:05:00,
2013-03-09 01:10:00,39.7,27.4,30.28,WSW,254,0.0,1.0,61,0.00,,CLR,0.00,VWS V14.01,2013-03-09 06:10:00,
2013-03-09 01:15:00,39.5,27.6,30.29,WSW,254,0.0,1.0,62,0.00,,CLR,0.00,VWS V14.01,2013-03-09 06:15:00,
2013-03-09 01:20:00,39.1,30.2,30.29,WSW,254,0.0,0.0,70,0.00,,CLR,0.00,VWS V14.01,2013-03-09 06:20:00,
2013-03-09 01:25:00,38.7,30.1,30.29,WSW,251,0.0,1.0,71,0.00,,CLR,0.00,VWS V14.01,2013-03-09 06:25:00,
2013-03-09 01:30:00,38.3,28.3,30.29,WSW,251,0.0,0.0,67,0.00,,CLR,0.00,VWS V14.01,2013-03-09 06:30:00,
2013-03-09 01:35:00,37.7,29.2,30.30,WSW,251,0.0,0.0,71,0.00,,CLR,0.00,VWS V14.01,2013-03-09 06:35:00,
2013-03-09 01:40:00,37.3,29.8,30.30,WSW,251,0.0,0.0,74,0.00,,CLR,0.00,VWS V14.01,2013-03-09 06:40:00,
2013-03-09 01:45:00,36.7,29.5,30.29,WSW,251,0.0,0.0,75,0.00,,CLR,0.00,VWS V14.01,2013-03-09 06:45:00,
2013-03-09 01:50:00,36.1,29.6,30.30,WSW,251,0.0,0.0,77,0.00,,CLR,0.00,VWS V14.01,2013-03-09 06:50:00,
2013-03-09 01:55:00,35.7,29.8,30.29,WSW,251,0.0,0.0,79,0.00,,CLR,0.00,VWS V14.01,2013-03-09 06:55:00,
2013-03-09 02:00:00,35.5,30.0,30.29,WSW,251,0.0,0.0,80,0.00,,CLR,0.00,VWS V14.01,2013-03-09 07:00:00,
2013-03-09 02:05:00,35.3,28.8,30.29,WSW,251,0.0,0.0,77,0.00,,CLR,0.00,VWS V14.01,2013-03-09 07:05:00,
2013-03-09 02:10:00,35.1,30.2,30.29,WSW,251,0.0,0.0,82,0.00,,CLR,0.00,VWS V14.01,2013-03-09 07:10:00,
2013-03-09 02:15:00,34.9,30.3,30.29,WSW,251,0.0,0.0,83,0.00,,CLR,0.00,VWS V14.01,2013-03-09 07:15:00,
2013-03-09 02:20:00,34.6,30.3,30.29,WSW,251,0.0,0.0,84,0.00,,CLR,0.00,VWS V14.01,2013-03-09 07:20:00,
2013-03-09 02:25:00,34.3,30.3,30.29,WSW,251,0.0,0.0,85,0.00,,CLR,0.00,VWS V14.01,2013-03-09 07:25:00,
2013-03-09 02:30:00,33.9,30.2,30.28,WSW,251,0.0,0.0,86,0.00,,CLR,0.00,VWS V14.01,2013-03-09 07:30:00,
2013-03-09 02:35:00,33.7,30.2,30.28,WSW,251,0.0,0.0,87,0.00,,CLR,0.00,VWS V14.01,2013-03-09 07:35:00,
2013-03-09 02:40:00,33.5,30.0,30.28,WSW,251,0.0,0.0,87,0.00,,CLR,0.00,VWS V14.01,2013-03-09 07:40:00,
2013-03-09 02:45:00,33.3,30.1,30.28,WSW,251,0.0,0.0,88,0.00,,CLR,0.00,VWS V14.01,2013-03-09 07:45:00,
2013-03-09 02:50:00,33.0,29.8,30.28,WSW,251,0.0,0.0,88,0.00,,CLR,0.00,VWS V14.01,2013-03-09 07:50:00,
2013-03-09 02:55:00,32.7,29.3,30.28,WSW,251,0.0,0.0,87,0.00,,CLR,0.00,VWS V14.01,2013-03-09 07:55:00,
2013-03-09 03:00:00,32.4,29.0,30.27,WSW,251,0.0,0.0,87,0.00,,CLR,0.00,VWS V14.01,2013-03-09 08:00:00,
2013-03-09 03:05:00,32.2,29.3,30.27,WSW,251,0.0,0.0,89,0.00,,CLR,0.00,VWS V14.01,2013-03-09 08:05:00,
2013-03-09 03:10:00,32.1,29.2,30.27,WSW,251,0.0,0.0,89,0.00,,CLR,0.00,VWS V14.01,2013-03-09 08:10:00,
2013-03-09 03:15:00,31.9,29.0,30.26,WSW,251,0.0,0.0,89,0.00,,CLR,0.00,VWS V14.01,2013-03-09 08:15:00,
2013-03-09 03:20:00,31.8,29.2,30.26,WSW,251,0.0,1.0,90,0.00,,CLR,0.00,VWS V14.01,2013-03-09 08:20:00,
2013-03-09 03:25:00,31.7,28.8,30.27,WSW,251,0.0,0.0,89,0.00,,CLR,0.00,VWS V14.01,2013-03-09 08:25:00,
2013-03-09 03:30:00,31.6,28.7,30.26,WSW,251,0.0,0.0,89,0.00,,CLR,0.00,VWS V14.01,2013-03-09 08:30:00,
2013-03-09 03:35:00,31.4,28.5,30.26,WSW,251,0.0,0.0,89,0.00,,CLR,0.00,VWS V14.01,2013-03-09 08:35:00,
2013-03-09 03:40:00,31.4,28.8,30.26,WSW,251,0.0,0.0,90,0.00,,CLR,0.00,VWS V14.01,2013-03-09 08:40:00,
2013-03-09 03:45:00,31.2,28.6,30.26,WSW,251,0.0,0.0,90,0.00,,CLR,0.00,VWS V14.01,2013-03-09 08:45:00,
2013-03-09 03:50:00,31.2,28.6,30.26,WSW,251,0.0,0.0,90,0.00,,CLR,0.00,VWS V14.01,2013-03-09 08:50:00,
2013-03-09 03:55:00,31.0,28.7,30.26,WSW,251,0.0,0.0,91,0.00,,CLR,0.00,VWS V14.01,2013-03-09 08:55:00,
2013-03-09 04:00:00,30.9,28.6,30.26,WSW,251,0.0,0.0,91,0.00,,CLR,0.00,VWS V14.01,2013-03-09 09:00:00,
2013-03-09 04:05:00,30.8,28.5,30.27,WSW,251,0.0,0.0,91,0.00,,CLR,0.00,VWS V14.01,2013-03-09 09:05:00,
2013-03-09 04:10:00,30.7,28.1,30.27,WSW,251,0.0,0.0,90,0.00,,CLR,0.00,VWS V14.01,2013-03-09 09:10:00,
2013-03-09 04:15:00,30.8,28.5,30.27,WSW,251,0.0,0.0,91,0.00,,CLR,0.00,VWS V14.01,2013-03-09 09:15:00,
2013-03-09 04:20:00,30.7,28.4,30.27,WSW,251,0.0,0.0,91,0.00,,CLR,0.00,VWS V14.01,2013-03-09 09:20:00,
2013-03-09 04:25:00,30.7,28.4,30.27,WSW,251,0.0,0.0,91,0.00,,CLR,0.00,VWS V14.01,2013-03-09 09:25:00,
2013-03-09 04:30:00,30.5,28.2,30.27,WSW,251,0.0,0.0,91,0.00,,CLR,0.00,VWS V14.01,2013-03-09 09:30:00,
2013-03-09 04:35:00,30.6,28.6,30.28,WSW,251,0.0,0.0,92,0.00,,CLR,0.00,VWS V14.01,2013-03-09 09:35:00,
2013-03-09 04:40:00,30.5,28.5,30.28,WSW,251,0.0,0.0,92,0.00,,CLR,0.00,VWS V14.01,2013-03-09 09:40:00,
2013-03-09 04:45:00,30.5,28.5,30.28,WSW,251,0.0,0.0,92,0.00,,CLR,0.00,VWS V14.01,2013-03-09 09:45:00,
2013-03-09 04:50:00,30.4,28.4,30.28,WSW,251,0.0,0.0,92,0.00,,CLR,0.00,VWS V14.01,2013-03-09 09:50:00,
2013-03-09 04:55:00,30.2,27.9,30.28,WSW,251,0.0,0.0,91,0.00,,CLR,0.00,VWS V14.01,2013-03-09 09:55:00,
2013-03-09 05:00:00,30.1,27.8,30.29,WSW,251,0.0,0.0,91,0.00,,CLR,0.00,VWS V14.01,2013-03-09 10:00:00,
2013-03-09 05:05:00,30.0,28.0,30.29,WSW,251,0.0,0.0,92,0.00,,CLR,0.00,VWS V14.01,2013-03-09 10:05:00,
2013-03-09 05:10:00,30.0,28.0,30.29,WSW,251,0.0,0.0,92,0.00,,CLR,0.00,VWS V14.01,2013-03-09 10:10:00,
2013-03-09 05:15:00,29.9,27.9,30.29,WSW,251,0.0,0.0,92,0.00,,CLR,0.00,VWS V14.01,2013-03-09 10:15:00,
2013-03-09 05:20:00,29.9,28.1,30.29,WSW,251,0.0,0.0,93,0.00,,CLR,0.00,VWS V14.01,2013-03-09 10:20:00,
2013-03-09 05:25:00,29.7,27.7,30.29,WSW,251,0.0,0.0,92,0.00,,CLR,0.00,VWS V14.01,2013-03-09 10:25:00,
2013-03-09 05:30:00,29.6,27.6,30.29,WSW,251,0.0,0.0,92,0.00,,CLR,0.00,VWS V14.01,2013-03-09 10:30:00,
2013-03-09 05:35:00,29.6,27.6,30.29,WSW,251,0.0,0.0,92,0.00,,CLR,0.00,VWS V14.01,2013-03-09 10:35:00,
2013-03-09 05:40:00,29.4,27.4,30.29,WSW,251,0.0,0.0,92,0.00,,CLR,0.00,VWS V14.01,2013-03-09 10:40:00,
2013-03-09 05:45:00,29.3,27.3,30.29,WSW,251,0.0,0.0,92,0.00,,CLR,0.00,VWS V14.01,2013-03-09 10:45:00,
2013-03-09 05:50:00,29.2,26.9,30.29,WSW,251,0.0,0.0,91,0.00,,CLR,0.00,VWS V14.01,2013-03-09 10:50:00,
2013-03-09 05:55:00,29.2,26.9,30.29,WSW,251,0.0,0.0,91,0.00,,CLR,0.00,VWS V14.01,2013-03-09 10:55:00,
2013-03-09 06:00:00,29.2,27.2,30.29,WSW,251,0.0,0.0,92,0.00,,CLR,0.00,VWS V14.01,2013-03-09 11:00:00,
2013-03-09 06:05:00,29.1,27.1,30.29,WSW,251,0.0,0.0,92,0.00,,CLR,0.00,VWS V14.01,2013-03-09 11:05:00,
2013-03-09 06:10:00,29.0,27.0,30.29,WSW,251,0.0,0.0,92,0.00,,CLR,0.00,VWS V14.01,2013-03-09 11:10:00,
2013-03-09 06:20:00,28.9,26.9,30.29,WSW,251,0.0,0.0,92,0.00,,CLR,0.00,VWS V14.01,2013-03-09 11:20:00,
2013-03-09 06:25:00,28.8,26.8,30.30,WSW,251,0.0,0.0,92,0.00,,CLR,0.00,VWS V14.01,2013-03-09 11:25:00,
2013-03-09 06:35:00,28.8,27.0,30.30,WSW,251,0.0,0.0,93,0.00,,CLR,0.00,VWS V14.01,2013-03-09 11:35:00,
2013-03-09 06:40:00,28.8,27.0,30.30,WSW,251,0.0,0.0,93,0.00,,CLR,0.00,VWS V14.01,2013-03-09 11:40:00,
2013-03-09 06:45:00,28.8,27.0,30.30,WSW,251,0.0,1.0,93,0.00,,CLR,0.00,VWS V14.01,2013-03-09 11:45:00,
2013-03-09 06:50:00,28.9,27.1,30.30,WSW,251,0.0,1.0,93,0.00,,CLR,0.00,VWS V14.01,2013-03-09 11:50:00,
2013-03-09 06:55:00,28.9,26.9,30.30,WSW,251,0.0,1.0,92,0.00,,CLR,0.00,VWS V14.01,2013-03-09 11:55:00,
2013-03-09 07:00:00,29.1,27.1,30.30,WSW,251,0.0,1.0,92,0.00,,CLR,0.00,VWS V14.01,2013-03-09 12:00:00,
2013-03-09 07:05:00,29.3,27.3,30.30,WSW,251,0.0,0.0,92,0.00,,CLR,0.00,VWS V14.01,2013-03-09 12:05:00,
2013-03-09 07:10:00,29.9,28.1,30.30,WSW,251,0.0,0.0,93,0.00,,CLR,0.00,VWS V14.01,2013-03-09 12:10:00,
2013-03-09 07:15:00,30.7,28.7,30.30,WSW,251,0.0,0.0,92,0.00,,CLR,0.00,VWS V14.01,2013-03-09 12:15:00,
2013-03-09 07:20:00,31.3,28.7,30.30,WSW,251,0.0,0.0,90,0.00,,CLR,0.00,VWS V14.01,2013-03-09 12:20:00,
2013-03-09 07:25:00,31.6,28.7,30.30,WSW,251,0.0,1.0,89,0.00,,CLR,0.00,VWS V14.01,2013-03-09 12:25:00,
2013-03-09 07:30:00,31.7,28.6,30.31,WSW,251,0.0,1.0,88,0.00,,CLR,0.00,VWS V14.01,2013-03-09 12:30:00,
2013-03-09 07:35:00,32.1,29.0,30.31,West,260,0.0,1.0,88,0.00,,CLR,0.00,VWS V14.01,2013-03-09 12:35:00,
2013-03-09 07:40:00,32.8,29.4,30.31,WSW,240,0.0,1.0,87,0.00,,CLR,0.00,VWS V14.01,2013-03-09 12:40:00,
2013-03-09 07:45:00,33.5,29.8,30.31,WSW,244,0.0,1.0,86,0.00,,CLR,0.00,VWS V14.01,2013-03-09 12:45:00,
2013-03-09 07:50:00,34.7,30.4,30.32,SW,231,0.0,1.0,84,0.00,,CLR,0.00,VWS V14.01,2013-03-09 12:50:00,
2013-03-09 07:55:00,35.9,30.3,30.32,WSW,258,0.0,1.0,80,0.00,,CLR,0.00,VWS V14.01,2013-03-09 12:55:00,
2013-03-09 08:00:00,37.4,31.8,30.32,WSW,258,0.0,0.0,80,0.00,,CLR,0.00,VWS V14.01,2013-03-09 13:00:00,
2013-03-09 08:10:00,39.8,29.4,30.32,North,349,0.0,2.0,66,0.00,,CLR,0.00,VWS V14.01,2013-03-09 13:10:00,
2013-03-09 08:15:00,41.3,29.7,30.32,North,9,0.0,2.0,63,0.00,,CLR,0.00,VWS V14.01,2013-03-09 13:15:00,
2013-03-09 08:20:00,42.6,29.7,30.32,NNE,32,0.0,4.0,60,0.00,,CLR,0.00,VWS V14.01,2013-03-09 13:20:00,
2013-03-09 08:25:00,43.2,29.0,30.32,NNE,17,0.0,2.0,57,0.00,,CLR,0.00,VWS V14.01,2013-03-09 13:25:00,
2013-03-09 08:30:00,43.6,28.5,30.33,NE,46,1.0,2.0,55,0.00,,CLR,0.00,VWS V14.01,2013-03-09 13:30:00,
2013-03-09 08:35:00,44.2,28.2,30.33,NE,52,0.0,4.0,53,0.00,,CLR,0.00,VWS V14.01,2013-03-09 13:35:00,
2013-03-09 08:40:00,44.8,28.3,30.33,NNE,18,0.0,3.0,52,0.00,,CLR,0.00,VWS V14.01,2013-03-09 13:40:00,
2013-03-09 08:45:00,45.2,27.7,30.33,NW,313,1.0,3.0,50,0.00,,CLR,0.00,VWS V14.01,2013-03-09 13:45:00,
2013-03-09 08:50:00,45.2,27.7,30.33,NE,37,0.0,4.0,50,0.00,,CLR,0.00,VWS V14.01,2013-03-09 13:50:00,
2013-03-09 08:55:00,45.6,28.5,30.33,NW,307,1.0,3.0,51,0.00,,CLR,0.00,VWS V14.01,2013-03-09 13:55:00,
2013-03-09 09:00:00,45.4,27.4,30.33,WNW,295,1.0,3.0,49,0.00,,CLR,0.00,VWS V14.01,2013-03-09 14:00:00,
2013-03-09 09:05:00,45.4,27.9,30.33,WNW,299,0.0,3.0,50,0.00,,CLR,0.00,VWS V14.01,2013-03-09 14:05:00,
2013-03-09 09:10:00,45.9,29.3,30.33,NW,308,0.0,1.0,52,0.00,,CLR,0.00,VWS V14.01,2013-03-09 14:10:00,
2013-03-09 09:15:00,45.9,27.8,30.33,WNW,303,0.0,2.0,49,0.00,,CLR,0.00,VWS V14.01,2013-03-09 14:15:00,
2013-03-09 09:20:00,45.9,27.8,30.33,NNE,13,1.0,3.0,49,0.00,,CLR,0.00,VWS V14.01,2013-03-09 14:20:00,
2013-03-09 09:25:00,46.1,28.0,30.33,NW,308,1.0,3.0,49,0.00,,CLR,0.00,VWS V14.01,2013-03-09 14:25:00,
2013-03-09 09:30:00,46.7,28.1,30.33,North,9,2.0,3.0,48,0.00,,CLR,0.00,VWS V14.01,2013-03-09 14:30:00,
2013-03-09 09:35:00,47.0,28.3,30.33,North,6,0.0,4.0,48,0.00,,CLR,0.00,VWS V14.01,2013-03-09 14:35:00,
2013-03-09 09:40:00,47.2,28.0,30.33,NE,35,0.0,3.0,47,0.00,,CLR,0.00,VWS V14.01,2013-03-09 14:40:00,
2013-03-09 09:45:00,47.6,28.9,30.33,NW,307,0.0,3.0,48,0.00,,CLR,0.00,VWS V14.01,2013-03-09 14:45:00,
2013-03-09 09:50:00,48.5,28.7,30.33,WNW,285,1.0,2.0,46,0.00,,CLR,0.00,VWS V14.01,2013-03-09 14:50:00,
2013-03-09 09:55:00,48.6,28.2,30.33,WNW,300,1.0,2.0,45,0.00,,CLR,0.00,VWS V14.01,2013-03-09 14:55:00,
2013-03-09 10:00:00,49.3,28.9,30.33,NW,310,2.0,2.0,45,0.00,,CLR,0.00,VWS V14.01,2013-03-09 15:00:00,
2013-03-09 10:05:00,49.5,28.5,30.33,NE,34,0.0,5.0,44,0.00,,CLR,0.00,VWS V14.01,2013-03-09 15:05:00,
2013-03-09 10:10:00,49.8,28.8,30.33,NE,51,1.0,2.0,44,0.00,,CLR,0.00,VWS V14.01,2013-03-09 15:10:00,
2013-03-09 10:15:00,50.2,28.6,30.33,NW,315,1.0,3.0,43,0.00,,CLR,0.00,VWS V14.01,2013-03-09 15:15:00,
2013-03-09 10:20:00,50.6,28.4,30.33,WNW,297,1.0,3.0,42,0.00,,CLR,0.00,VWS V14.01,2013-03-09 15:20:00,
2013-03-09 10:25:00,51.0,28.7,30.33,WNW,303,0.0,2.0,42,0.00,,CLR,0.00,VWS V14.01,2013-03-09 15:25:00,
2013-03-09 10:30:00,51.6,28.1,30.33,NNW,333,1.0,2.0,40,0.00,,CLR,0.00,VWS V14.01,2013-03-09 15:30:00,
2013-03-09 10:35:00,51.7,28.8,30.33,North,3,1.0,3.0,41,0.00,,CLR,0.00,VWS V14.01,2013-03-09 15:35:00,
2013-03-09 10:40:00,52.8,29.8,30.32,NNE,20,1.0,1.0,41,0.00,,CLR,0.00,VWS V14.01,2013-03-09 15:40:00,
2013-03-09 10:45:00,53.1,28.8,30.32,West,268,0.0,2.0,39,0.00,,CLR,0.00,VWS V14.01,2013-03-09 15:45:00,
2013-03-09 10:50:00,53.0,28.1,30.32,NW,324,1.0,3.0,38,0.00,,CLR,0.00,VWS V14.01,2013-03-09 15:50:00,
2013-03-09 10:55:00,53.4,28.5,30.32,WNW,286,1.0,2.0,38,0.00,,CLR,0.00,VWS V14.01,2013-03-09 15:55:00,
2013-03-09 11:00:00,54.0,29.0,30.32,ENE,68,0.0,2.0,38,0.00,,CLR,0.00,VWS V14.01,2013-03-09 16:00:00,
2013-03-09 11:05:00,54.4,28.7,30.32,NNW,344,0.0,2.0,37,0.00,,CLR,0.00,VWS V14.01,2013-03-09 16:05:00,
2013-03-09 11:10:00,54.7,28.3,30.32,North,351,1.0,3.0,36,0.00,,CLR,0.00,VWS V14.01,2013-03-09 16:10:00,
2013-03-09 11:15:00,55.7,28.5,30.32,NE,37,1.0,4.0,35,0.00,,CLR,0.00,VWS V14.01,2013-03-09 16:15:00,
2013-03-09 11:20:00,55.3,27.4,30.32,NW,307,0.0,3.0,34,0.00,,CLR,0.00,VWS V14.01,2013-03-09 16:20:00,
2013-03-09 11:25:00,55.9,28.0,30.32,WNW,289,3.0,4.0,34,0.00,,CLR,0.00,VWS V14.01,2013-03-09 16:25:00,
2013-03-09 11:30:00,56.3,29.0,30.32,West,267,0.0,3.0,35,0.00,,CLR,0.00,VWS V14.01,2013-03-09 16:30:00,
2013-03-09 11:35:00,56.8,28.8,30.32,WNW,300,2.0,2.0,34,0.00,,CLR,0.00,VWS V14.01,2013-03-09 16:35:00,
2013-03-09 11:40:00,56.9,28.8,30.32,NW,311,0.0,3.0,34,0.00,,CLR,0.00,VWS V14.01,2013-03-09 16:40:00,
2013-03-09 11:45:00,57.3,29.2,30.31,ENE,65,1.0,4.0,34,0.00,,CLR,0.00,VWS V14.01,2013-03-09 16:45:00,
2013-03-09 11:50:00,58.0,28.3,30.31,North,9,2.0,4.0,32,0.00,,CLR,0.00,VWS V14.01,2013-03-09 16:50:00,
2013-03-09 11:55:00,57.8,28.9,30.31,NNE,27,2.0,3.0,33,0.00,,CLR,0.00,VWS V14.01,2013-03-09 16:55:00,
2013-03-09 12:00:00,58.1,29.2,30.31,ENE,70,1.0,3.0,33,0.00,,CLR,0.00,VWS V14.01,2013-03-09 17:00:00,
2013-03-09 12:05:00,58.8,29.0,30.31,SSW,205,0.0,3.0,32,0.00,,CLR,0.00,VWS V14.01,2013-03-09 17:05:00,
2013-03-09 12:10:00,58.4,27.1,30.31,NW,305,0.0,3.0,30,0.00,,CLR,0.00,VWS V14.01,2013-03-09 17:10:00,
2013-03-09 12:15:00,58.4,27.9,30.30,WNW,300,1.0,3.0,31,0.00,,CLR,0.00,VWS V14.01,2013-03-09 17:15:00,
2013-03-09 12:20:00,58.8,26.6,30.30,NW,309,1.0,2.0,29,0.00,,CLR,0.00,VWS V14.01,2013-03-09 17:20:00,
2013-03-09 12:25:00,58.8,27.5,30.30,NNW,347,0.0,2.0,30,0.00,,CLR,0.00,VWS V14.01,2013-03-09 17:25:00,
2013-03-09 12:30:00,59.0,28.4,30.30,NW,322,0.0,3.0,31,0.00,,CLR,0.00,VWS V14.01,2013-03-09 17:30:00,
2013-03-09 12:35:00,59.6,28.1,30.30,NW,317,1.0,4.0,30,0.00,,CLR,0.00,VWS V14.01,2013-03-09 17:35:00,
2013-03-09 12:40:00,59.8,26.6,30.30,SE,145,0.0,2.0,28,0.00,,CLR,0.00,VWS V14.01,2013-03-09 17:40:00,
2013-03-09 12:45:00,60.1,28.6,30.30,NNW,328,1.0,3.0,30,0.00,,CLR,0.00,VWS V14.01,2013-03-09 17:45:00,
2013-03-09 12:50:00,60.2,26.1,30.29,West,278,0.0,3.0,27,0.00,,CLR,0.00,VWS V14.01,2013-03-09 17:50:00,
2013-03-09 12:55:00,60.3,27.1,30.29,NNW,339,1.0,3.0,28,0.00,,CLR,0.00,VWS V14.01,2013-03-09 17:55:00,
2013-03-09 13:00:00,60.5,28.1,30.29,WSW,252,4.0,4.0,29,0.00,,CLR,0.00,VWS V14.01,2013-03-09 18:00:00,
2013-03-09 13:10:00,61.6,29.1,30.28,NNE,26,1.0,4.0,29,0.00,,CLR,0.00,VWS V14.01,2013-03-09 18:10:00,
2013-03-09 13:15:00,61.6,26.4,30.28,NW,307,0.0,2.0,26,0.00,,CLR,0.00,VWS V14.01,2013-03-09 18:15:00,
2013-03-09 13:20:00,61.0,27.7,30.28,ENE,72,0.0,5.0,28,0.00,,CLR,0.00,VWS V14.01,2013-03-09 18:20:00,
2013-03-09 13:25:00,61.2,26.1,30.28,NNE,21,2.0,4.0,26,0.00,,CLR,0.00,VWS V14.01,2013-03-09 18:25:00,
2013-03-09 13:30:00,61.3,27.1,30.27,ENE,70,1.0,2.0,27,0.00,,CLR,0.00,VWS V14.01,2013-03-09 18:30:00,
2013-03-09 13:35:00,61.9,27.6,30.27,NE,44,0.0,1.0,27,0.00,,CLR,0.00,VWS V14.01,2013-03-09 18:35:00,
2013-03-09 13:40:00,62.2,26.0,30.27,NW,323,1.0,2.0,25,0.00,,CLR,0.00,VWS V14.01,2013-03-09 18:40:00,
2013-03-09 13:45:00,62.1,26.8,30.27,NNE,14,2.0,4.0,26,0.00,,CLR,0.00,VWS V14.01,2013-03-09 18:45:00,
2013-03-09 13:50:00,62.3,26.1,30.27,NW,315,0.0,3.0,25,0.00,,CLR,0.00,VWS V14.01,2013-03-09 18:50:00,
2013-03-09 13:55:00,62.4,25.2,30.26,NW,304,1.0,2.0,24,0.00,,CLR,0.00,VWS V14.01,2013-03-09 18:55:00,
2013-03-09 14:00:00,62.3,26.1,30.26,NNE,30,3.0,5.0,25,0.00,,CLR,0.00,VWS V14.01,2013-03-09 19:00:00,
2013-03-09 14:10:00,62.2,26.0,30.26,WNW,299,0.0,3.0,25,0.00,,CLR,0.00,VWS V14.01,2013-03-09 19:10:00,
2013-03-09 14:15:00,62.6,27.3,30.26,ENE,61,0.0,7.0,26,0.00,,CLR,0.00,VWS V14.01,2013-03-09 19:15:00,
2013-03-09 14:20:00,62.2,26.0,30.26,SSE,162,0.0,3.0,25,0.00,,CLR,0.00,VWS V14.01,2013-03-09 19:20:00,
2013-03-09 14:25:00,62.9,26.6,30.26,NNE,32,0.0,2.0,25,0.00,,CLR,0.00,VWS V14.01,2013-03-09 19:25:00,
2013-03-09 14:30:00,62.9,25.6,30.26,North,7,1.0,4.0,24,0.00,,CLR,0.00,VWS V14.01,2013-03-09 19:30:00,
2013-03-09 14:35:00,62.8,28.4,30.26,NNW,347,0.0,2.0,27,0.00,,CLR,0.00,VWS V14.01,2013-03-09 19:35:00,
2013-03-09 14:40:00,63.2,27.8,30.25,East,82,1.0,3.0,26,0.00,,CLR,0.00,VWS V14.01,2013-03-09 19:40:00,
2013-03-09 14:45:00,63.2,27.8,30.25,NE,53,1.0,3.0,26,0.00,,CLR,0.00,VWS V14.01,2013-03-09 19:45:00,
2013-03-09 14:50:00,62.8,26.5,30.25,ENE,62,0.0,3.0,25,0.00,,CLR,0.00,VWS V14.01,2013-03-09 19:50:00,
2013-03-09 14:55:00,63.4,26.0,30.25,NNE,16,0.0,2.0,24,0.00,,CLR,0.00,VWS V14.01,2013-03-09 19:55:00,
2013-03-09 15:00:00,63.5,26.1,30.25,WNW,295,0.0,2.0,24,0.00,,CLR,0.00,VWS V14.01,2013-03-09 20:00:00,
2013-03-09 15:10:00,63.8,26.3,30.25,NNW,330,1.0,6.0,24,0.00,,CLR,0.00,VWS V14.01,2013-03-09 20:10:00,
2013-03-09 15:15:00,63.5,27.1,30.25,ENE,70,1.0,3.0,25,0.00,,CLR,0.00,VWS V14.01,2013-03-09 20:15:00,
2013-03-09 15:20:00,63.3,25.9,30.25,ENE,75,0.0,3.0,24,0.00,,CLR,0.00,VWS V14.01,2013-03-09 20:20:00,
2013-03-09 15:30:00,63.5,26.1,30.24,WSW,257,0.0,3.0,24,0.00,,CLR,0.00,VWS V14.01,2013-03-09 20:30:00,
2013-03-09 15:35:00,63.9,27.4,30.24,NE,34,1.0,4.0,25,0.00,,CLR,0.00,VWS V14.01,2013-03-09 20:35:00,
2013-03-09 15:40:00,63.4,27.0,30.24,NNE,27,0.0,3.0,25,0.00,,CLR,0.00,VWS V14.01,2013-03-09 20:40:00,
2013-03-09 15:45:00,63.5,27.1,30.24,NNW,337,0.0,1.0,25,0.00,,CLR,0.00,VWS V14.01,2013-03-09 20:45:00,
2013-03-09 15:50:00,63.4,27.0,30.24,ENE,61,1.0,2.0,25,0.00,,CLR,0.00,VWS V14.01,2013-03-09 20:50:00,
2013-03-09 15:55:00,63.7,29.1,30.24,WNW,295,0.0,2.0,27,0.00,,CLR,0.00,VWS V14.01,2013-03-09 20:55:00,
2013-03-09 16:00:00,64.3,29.6,30.24,NNE,30,0.0,1.0,27,0.00,,CLR,0.00,VWS V14.01,2013-03-09 21:00:00,
2013-03-09 16:10:00,64.2,27.7,30.24,NNW,330,0.0,1.0,25,0.00,,CLR,0.00,VWS V14.01,2013-03-09 21:10:00,
2013-03-09 16:15:00,64.3,28.7,30.24,NNW,344,1.0,1.0,26,0.00,,CLR,0.00,VWS V14.01,2013-03-09 21:15:00,
2013-03-09 16:20:00,64.2,27.7,30.24,West,261,0.0,3.0,25,0.00,,CLR,0.00,VWS V14.01,2013-03-09 21:20:00,
2013-03-09 16:25:00,64.6,28.0,30.24,NNW,332,0.0,1.0,25,0.00,,CLR,0.00,VWS V14.01,2013-03-09 21:25:00,
2013-03-09 16:30:00,64.1,26.6,30.24,NNE,15,0.0,3.0,24,0.00,,CLR,0.00,VWS V14.01,2013-03-09 21:30:00,
2013-03-09 16:35:00,64.1,28.5,30.23,North,360,1.0,1.0,26,0.00,,CLR,0.00,VWS V14.01,2013-03-09 21:35:00,
2013-03-09 16:40:00,63.5,28.0,30.23,North,5,2.0,2.0,26,0.00,,CLR,0.00,VWS V14.01,2013-03-09 21:40:00,
2013-03-09 16:45:00,63.1,27.7,30.23,North,8,0.0,3.0,26,0.00,,CLR,0.00,VWS V14.01,2013-03-09 21:45:00,
2013-03-09 16:50:00,63.1,28.6,30.23,NE,49,0.0,2.0,27,0.00,,CLR,0.00,VWS V14.01,2013-03-09 21:50:00,
2013-03-09 16:55:00,63.1,28.6,30.23,NNE,17,0.0,2.0,27,0.00,,CLR,0.00,VWS V14.01,2013-03-09 21:55:00,
2013-03-09 17:00:00,62.9,28.4,30.23,North,2,0.0,2.0,27,0.00,,CLR,0.00,VWS V14.01,2013-03-09 22:00:00,
2013-03-09 17:05:00,62.2,27.8,30.24,ENE,71,2.0,4.0,27,0.00,,CLR,0.00,VWS V14.01,2013-03-09 22:05:00,
2013-03-09 17:10:00,61.6,27.3,30.24,East,84,4.0,4.0,27,0.00,,CLR,0.00,VWS V14.01,2013-03-09 22:10:00,
2013-03-09 17:15:00,61.1,28.6,30.24,East,83,0.0,4.0,29,0.00,,CLR,0.00,VWS V14.01,2013-03-09 22:15:00,
2013-03-09 17:20:00,60.9,29.3,30.24,NNE,25,0.0,1.0,30,0.00,,CLR,0.00,VWS V14.01,2013-03-09 22:20:00,
2013-03-09 17:25:00,60.5,28.1,30.24,ENE,73,0.0,1.0,29,0.00,,CLR,0.00,VWS V14.01,2013-03-09 22:25:00,
2013-03-09 17:30:00,60.2,30.2,30.24,ENE,72,0.0,1.0,32,0.00,,CLR,0.00,VWS V14.01,2013-03-09 22:30:00,
2013-03-09 17:35:00,59.9,28.4,30.24,ENE,68,0.0,3.0,30,0.00,,CLR,0.00,VWS V14.01,2013-03-09 22:35:00,
2013-03-09 17:40:00,59.7,29.0,30.24,NE,53,0.0,1.0,31,0.00,,CLR,0.00,VWS V14.01,2013-03-09 22:40:00,
2013-03-09 17:45:00,59.5,27.2,30.24,NE,45,0.0,1.0,29,0.00,,CLR,0.00,VWS V14.01,2013-03-09 22:45:00,
2013-03-09 17:50:00,59.2,27.8,30.24,ENE,77,0.0,1.0,30,0.00,,CLR,0.00,VWS V14.01,2013-03-09 22:50:00,
2013-03-09 17:55:00,59.0,28.4,30.25,ENE,77,0.0,1.0,31,0.00,,CLR,0.00,VWS V14.01,2013-03-09 22:55:00,
2013-03-09 18:00:00,58.5,28.8,30.25,NNE,13,0.0,1.0,32,0.00,,CLR,0.00,VWS V14.01,2013-03-09 23:00:00,
2013-03-09 18:10:00,57.4,32.7,30.25,NNE,13,0.0,0.0,39,0.00,,CLR,0.00,VWS V14.01,2013-03-09 23:10:00,
2013-03-09 18:15:00,56.2,32.8,30.25,NNE,14,0.0,1.0,41,0.00,,CLR,0.00,VWS V14.01,2013-03-09 23:15:00,
2013-03-09 18:20:00,55.0,33.5,30.25,NNE,13,0.0,0.0,44,0.00,,CLR,0.00,VWS V14.01,2013-03-09 23:20:00,
2013-03-09 18:25:00,54.1,34.3,30.25,NNE,13,0.0,0.0,47,0.00,,CLR,0.00,VWS V14.01,2013-03-09 23:25:00,
2013-03-09 18:30:00,53.3,35.7,30.25,NNE,13,0.0,0.0,51,0.00,,CLR,0.00,VWS V14.01,2013-03-09 23:30:00,
2013-03-09 18:35:00,52.5,36.8,30.25,NNE,13,0.0,0.0,55,0.00,,CLR,0.00,VWS V14.01,2013-03-09 23:35:00,
2013-03-09 18:40:00,51.7,34.2,30.26,NNE,13,0.0,0.0,51,0.00,,CLR,0.00,VWS V14.01,2013-03-09 23:40:00,
2013-03-09 18:45:00,51.0,34.5,30.26,NNE,13,0.0,0.0,53,0.00,,CLR,0.00,VWS V14.01,2013-03-09 23:45:00,
2013-03-09 18:50:00,50.3,34.8,30.26,NNE,13,0.0,0.0,55,0.00,,CLR,0.00,VWS V14.01,2013-03-09 23:50:00,
2013-03-09 18:55:00,49.4,36.9,30.26,NNE,13,0.0,0.0,62,0.00,,CLR,0.00,VWS V14.01,2013-03-09 23:55:00,
2013-03-09 19:00:00,48.7,35.9,30.26,NNE,13,0.0,0.0,61,0.00,,CLR,0.00,VWS V14.01,2013-03-10 00:00:00,
2013-03-09 19:10:00,47.6,34.8,30.26,NNE,13,0.0,1.0,61,0.00,,CLR,0.00,VWS V14.01,2013-03-10 00:10:00,
2013-03-09 19:15:00,46.9,35.4,30.27,NNE,14,0.0,0.0,64,0.00,,CLR,0.00,VWS V14.01,2013-03-10 00:15:00,
2013-03-09 19:20:00,46.2,34.7,30.26,NNE,15,0.0,1.0,64,0.00,,CLR,0.00,VWS V14.01,2013-03-10 00:20:00,
2013-03-09 19:25:00,45.8,36.2,30.27,NNE,15,0.0,0.0,69,0.00,,CLR,0.00,VWS V14.01,2013-03-10 00:25:00,
2013-03-09 19:30:00,45.6,36.0,30.27,NNE,15,0.0,0.0,69,0.00,,CLR,0.00,VWS V14.01,2013-03-10 00:30:00,
2013-03-09 19:35:00,45.3,35.0,30.27,NNE,15,0.0,1.0,67,0.00,,CLR,0.00,VWS V14.01,2013-03-10 00:35:00,
2013-03-09 19:40:00,44.7,34.8,30.27,NNE,15,0.0,0.0,68,0.00,,CLR,0.00,VWS V14.01,2013-03-10 00:40:00,
2013-03-09 19:45:00,44.3,34.8,30.27,NNE,15,0.0,0.0,69,0.00,,CLR,0.00,VWS V14.01,2013-03-10 00:45:00,
2013-03-09 19:50:00,43.9,34.0,30.27,NNE,15,0.0,0.0,68,0.00,,CLR,0.00,VWS V14.01,2013-03-10 00:50:00,
2013-03-09 19:55:00,43.6,35.2,30.27,NNE,15,0.0,0.0,72,0.00,,CLR,0.00,VWS V14.01,2013-03-10 00:55:00,
2013-03-09 20:00:00,43.3,35.6,30.28,NNE,15,0.0,0.0,74,0.00,,CLR,0.00,VWS V14.01,2013-03-10 01:00:00,
2013-03-09 20:05:00,43.0,34.2,30.28,NNE,15,0.0,0.0,71,0.00,,CLR,0.00,VWS V14.01,2013-03-10 01:05:00,
2013-03-09 20:10:00,42.7,34.3,30.28,NNE,15,0.0,0.0,72,0.00,,CLR,0.00,VWS V14.01,2013-03-10 01:10:00,
2013-03-09 20:15:00,42.5,33.8,30.28,NNE,15,0.0,0.0,71,0.00,,CLR,0.00,VWS V14.01,2013-03-10 01:15:00,
2013-03-09 20:20:00,42.2,33.8,30.28,NNE,15,0.0,0.0,72,0.00,,CLR,0.00,VWS V14.01,2013-03-10 01:20:00,
2013-03-09 20:25:00,41.9,34.2,30.28,NNE,15,0.0,0.0,74,0.00,,CLR,0.00,VWS V14.01,2013-03-10 01:25:00,
2013-03-09 20:30:00,41.6,34.6,30.28,NNE,15,0.0,0.0,76,0.00,,CLR,0.00,VWS V14.01,2013-03-10 01:30:00,
2013-03-09 20:35:00,41.2,34.2,30.28,NNE,15,0.0,0.0,76,0.00,,CLR,0.00,VWS V14.01,2013-03-10 01:35:00,
2013-03-09 20:40:00,40.9,33.9,30.28,NNE,15,0.0,0.0,76,0.00,,CLR,0.00,VWS V14.01,2013-03-10 01:40:00,
2013-03-09 20:45:00,40.7,33.7,30.28,NNE,15,0.0,0.0,76,0.00,,CLR,0.00,VWS V14.01,2013-03-10 01:45:00,
2013-03-09 20:50:00,40.5,34.2,30.28,NNE,15,0.0,0.0,78,0.00,,CLR,0.00,VWS V14.01,2013-03-10 01:50:00,
2013-03-09 20:55:00,40.2,33.2,30.28,NNE,15,0.0,0.0,76,0.00,,CLR,0.00,VWS V14.01,2013-03-10 01:55:00,
2013-03-09 21:00:00,40.1,33.8,30.28,NNE,15,0.0,0.0,78,0.00,,CLR,0.00,VWS V14.01,2013-03-10 02:00:00,
2013-03-09 21:05:00,39.8,34.1,30.28,NNE,15,0.0,0.0,80,0.00,,CLR,0.00,VWS V14.01,2013-03-10 02:05:00,
2013-03-09 21:10:00,39.7,35.0,30.28,NNE,15,0.0,0.0,83,0.00,,CLR,0.00,VWS V14.01,2013-03-10 02:10:00,
2013-03-09 21:15:00,39.5,35.1,30.28,NNE,15,0.0,0.0,84,0.00,,CLR,0.00,VWS V14.01,2013-03-10 02:15:00,
2013-03-09 21:20:00,39.2,34.2,30.28,NNE,15,0.0,0.0,82,0.00,,CLR,0.00,VWS V14.01,2013-03-10 02:20:00,
2013-03-09 21:25:00,38.9,33.6,30.28,NNE,15,0.0,0.0,81,0.00,,CLR,0.00,VWS V14.01,2013-03-10 02:25:00,
2013-03-09 21:35:00,38.7,33.1,30.28,NNE,15,0.0,0.0,80,0.00,,CLR,0.00,VWS V14.01,2013-03-10 02:35:00,
2013-03-09 21:40:00,38.4,32.8,30.29,NNE,15,0.0,0.0,80,0.00,,CLR,0.00,VWS V14.01,2013-03-10 02:40:00,
2013-03-09 21:45:00,38.3,33.9,30.29,NNE,15,0.0,0.0,84,0.00,,CLR,0.00,VWS V14.01,2013-03-10 02:45:00,
2013-03-09 21:50:00,38.0,33.9,30.29,NNE,15,0.0,0.0,85,0.00,,CLR,0.00,VWS V14.01,2013-03-10 02:50:00,
2013-03-09 21:55:00,37.8,33.4,30.29,NNE,15,0.0,0.0,84,0.00,,CLR,0.00,VWS V14.01,2013-03-10 02:55:00,
2013-03-09 22:00:00,37.6,33.2,30.29,NNE,15,0.0,0.0,84,0.00,,CLR,0.00,VWS V14.01,2013-03-10 03:00:00,
2013-03-09 22:05:00,37.4,33.3,30.29,NNE,15,0.0,0.0,85,0.00,,CLR,0.00,VWS V14.01,2013-03-10 03:05:00,
2013-03-09 22:10:00,37.2,32.5,30.29,NNE,15,0.0,0.0,83,0.00,,CLR,0.00,VWS V14.01,2013-03-10 03:10:00,
2013-03-09 22:15:00,37.0,32.6,30.29,NNE,15,0.0,0.0,84,0.00,,CLR,0.00,VWS V14.01,2013-03-10 03:15:00,
2013-03-09 22:20:00,36.8,33.0,30.29,NNE,21,0.0,0.0,86,0.00,,CLR,0.00,VWS V14.01,2013-03-10 03:20:00,
2013-03-09 22:30:00,36.4,32.6,30.29,NNE,21,0.0,0.0,86,0.00,,CLR,0.00,VWS V14.01,2013-03-10 03:30:00,
2013-03-09 22:35:00,36.2,32.1,30.29,NNE,20,0.0,0.0,85,0.00,,CLR,0.00,VWS V14.01,2013-03-10 03:35:00,
2013-03-09 22:40:00,36.0,31.6,30.29,NNE,21,0.0,0.0,84,0.00,,CLR,0.00,VWS V14.01,2013-03-10 03:40:00,
2013-03-09 22:45:00,36.0,32.2,30.29,NNE,21,0.0,0.0,86,0.00,,CLR,0.00,VWS V14.01,2013-03-10 03:45:00,
2013-03-09 22:55:00,35.9,32.4,30.29,NNE,20,0.0,1.0,87,0.00,,CLR,0.00,VWS V14.01,2013-03-10 03:55:00,
2013-03-09 23:00:00,35.5,32.0,30.29,NNE,21,0.0,0.0,87,0.00,,CLR,0.00,VWS V14.01,2013-03-10 04:00:00,
2013-03-09 23:05:00,35.3,31.8,30.29,NNE,20,0.0,0.0,87,0.00,,CLR,0.00,VWS V14.01,2013-03-10 04:05:00,
2013-03-09 23:15:00,35.0,31.2,30.29,NNE,20,0.0,0.0,86,0.00,,CLR,0.00,VWS V14.01,2013-03-10 04:15:00,
2013-03-09 23:25:00,35.0,32.1,30.29,NNE,21,0.0,1.0,89,0.00,,CLR,0.00,VWS V14.01,2013-03-10 04:25:00,
2013-03-09 23:30:00,34.8,31.9,30.29,NNE,21,0.0,0.0,89,0.00,,CLR,0.00,VWS V14.01,2013-03-10 04:30:00,
2013-03-09 23:35:00,34.5,31.3,30.29,NNE,21,0.0,0.0,88,0.00,,CLR,0.00,VWS V14.01,2013-03-10 04:35:00,
2013-03-09 23:45:00,34.2,31.3,30.29,NNE,20,0.0,0.0,89,0.00,,CLR,0.00,VWS V14.01,2013-03-10 04:45:00,
2013-03-09 23:50:00,34.1,31.2,30.29,NNE,20,0.0,0.0,89,0.00,,CLR,0.00,VWS V14.01,2013-03-10 04:50:00,
2013-03-09 23:55:00,34.1,31.2,30.30,NNE,21,0.0,0.0,89,0.00,,CLR,0.00,VWS V14.01,2013-03-10 04:55:00,